Time,TemperatureF,DewpointF,PressureIn,WindDirection,WindDirectionDegrees,WindSpeedMPH,WindSpeedGustMPH,Humidity,HourlyPrecipIn,Conditions,Clouds,dailyrainin,SoftwareType,DateUTC
2013-07-07 00:02:00,68.9,67.7,30.15,WNW,299,1.0,2.0,96,0.05,,,0.00,Wunderground v.1.15,2013-07-07 04:02:00,
2013-07-07 00:04:00,68.9,67.7,30.15,West,280,1.0,2.0,96,0.05,,,0.00,Wunderground v.1.15,2013-07-07 04:04:00,
2013-07-07 00:06:00,68.9,67.7,30.15,NW,307,1.0,2.0,96,0.05,,,0.00,Wunderground v.1.15,2013-07-07 04:06:00,
2013-07-07 00:08:00,68.8,67.6,30.15,NNW,333,1.0,2.0,96,0.05,,,0.00,Wunderground v.1.15,2013-07-07 04:08:00,
2013-07-07 00:14:00,69.0,67.8,30.15,NNW,346,1.0,2.0,96,0.06,,,0.01,Wunderground v.1.15,2013-07-07 04:14:00,
2013-07-07 00:20:00,69.0,67.5,30.15,NW,311,2.0,2.0,95,0.05,,,0.01,Wunderground v.1.15,2013-07-07 04:20:00,
2013-07-07 00:26:00,69.0,67.5,30.15,North,357,2.0,3.0,95,0.00,,,0.01,Wunderground v.1.15,2013-07-07 04:26:00,
2013-07-07 00:32:00,69.3,67.8,30.15,NE,34,3.0,7.0,95,0.00,,,0.02,Wunderground v.1.15,2013-07-07 04:32:00,
2013-07-07 00:38:00,69.5,67.7,30.15,North,351,7.0,9.0,94,0.00,,,0.02,Wunderground v.1.15,2013-07-07 04:38:00,
2013-07-07 00:44:00,69.5,67.7,30.15,NNE,19,7.0,7.0,94,0.00,,,0.02,Wunderground v.1.15,2013-07-07 04:44:00,
2013-07-07 00:50:00,69.6,67.8,30.15,NNE,19,6.0,6.0,94,0.00,,,0.02,Wunderground v.1.15,2013-07-07 04:50:00,
2013-07-07 00:56:00,69.6,67.8,30.14,North,1,5.0,7.0,94,0.00,,,0.02,Wunderground v.1.15,2013-07-07 04:56:00,
2013-07-07 01:02:00,69.6,67.8,30.14,North,354,6.0,7.0,94,0.00,,,0.02,Wunderground v.1.15,2013-07-07 05:02:00,
2013-07-07 01:08:00,69.6,67.8,30.14,NNE,18,5.0,7.0,94,0.00,,,0.02,Wunderground v.1.15,2013-07-07 05:08:00,
2013-07-07 01:14:00,69.5,68.0,30.14,North,360,3.0,5.0,95,0.00,,,0.02,Wunderground v.1.15,2013-07-07 05:14:00,
2013-07-07 01:20:00,69.4,67.6,30.14,North,356,4.0,5.0,94,0.00,,,0.02,Wunderground v.1.15,2013-07-07 05:20:00,
2013-07-07 01:26:00,69.4,67.6,30.13,North,352,6.0,9.0,94,0.19,,,0.04,Wunderground v.1.15,2013-07-07 05:26:00,
2013-07-07 01:34:00,69.2,67.4,30.12,North,10,8.0,8.0,94,0.10,,,0.05,Wunderground v.1.15,2013-07-07 05:34:00,
2013-07-07 01:40:00,69.2,67.4,30.12,North,11,8.0,8.0,94,0.07,,,0.06,Wunderground v.1.15,2013-07-07 05:40:00,
2013-07-07 01:46:00,69.4,67.9,30.12,NNE,14,7.0,8.0,95,0.07,,,0.06,Wunderground v.1.15,2013-07-07 05:46:00,
2013-07-07 01:52:00,69.4,67.6,30.12,NNE,24,5.0,6.0,94,0.04,,,0.06,Wunderground v.1.15,2013-07-07 05:52:00,
2013-07-07 01:58:00,69.6,67.8,30.12,NNE,31,7.0,9.0,94,0.00,,,0.06,Wunderground v.1.15,2013-07-07 05:58:00,
2013-07-07 02:04:00,69.7,67.6,30.12,ENE,58,5.0,7.0,93,0.00,,,0.06,Wunderground v.1.15,2013-07-07 06:04:00,
2013-07-07 02:10:00,69.8,67.7,30.12,NNW,343,3.0,3.0,93,0.00,,,0.06,Wunderground v.1.15,2013-07-07 06:10:00,
2013-07-07 02:16:00,69.7,67.6,30.12,NNE,12,2.0,6.0,93,0.00,,,0.06,Wunderground v.1.15,2013-07-07 06:16:00,
2013-07-07 02:22:00,69.7,67.6,30.12,North,4,3.0,6.0,93,0.00,,,0.07,Wunderground v.1.15,2013-07-07 06:22:00,
2013-07-07 02:28:00,69.6,67.5,30.12,North,10,4.0,6.0,93,0.05,,,0.08,Wunderground v.1.15,2013-07-07 06:28:00,
2013-07-07 02:34:00,69.6,67.5,30.11,NNE,23,3.0,5.0,93,0.05,,,0.08,Wunderground v.1.15,2013-07-07 06:34:00,
2013-07-07 02:40:00,69.6,67.5,30.11,NNE,14,3.0,3.0,93,0.05,,,0.09,Wunderground v.1.15,2013-07-07 06:40:00,
2013-07-07 02:46:00,69.6,67.5,30.11,NNE,19,3.0,5.0,93,0.05,,,0.09,Wunderground v.1.15,2013-07-07 06:46:00,
2013-07-07 02:52:00,69.5,67.4,30.11,NNW,346,2.0,5.0,93,0.05,,,0.09,Wunderground v.1.15,2013-07-07 06:52:00,
2013-07-07 02:58:00,69.4,67.6,30.11,WNW,287,1.0,5.0,94,0.00,,,0.09,Wunderground v.1.15,2013-07-07 06:58:00,
2013-07-07 03:04:00,69.2,67.4,30.10,WNW,284,1.0,5.0,94,0.00,,,0.09,Wunderground v.1.15,2013-07-07 07:04:00,
2013-07-07 03:10:00,69.0,67.5,30.10,WNW,283,1.0,5.0,95,0.00,,,0.09,Wunderground v.1.15,2013-07-07 07:10:00,
2013-07-07 03:16:00,68.9,67.4,30.10,NW,319,1.0,5.0,95,0.00,,,0.09,Wunderground v.1.15,2013-07-07 07:16:00,
2013-07-07 03:22:00,68.9,67.4,30.10,NNW,333,1.0,5.0,95,0.00,,,0.09,Wunderground v.1.15,2013-07-07 07:22:00,
2013-07-07 03:28:00,68.9,67.4,30.10,NW,325,2.0,5.0,95,0.00,,,0.09,Wunderground v.1.15,2013-07-07 07:28:00,
2013-07-07 03:34:00,68.8,67.3,30.09,NW,305,3.0,5.0,95,0.00,,,0.09,Wunderground v.1.15,2013-07-07 07:34:00,
2013-07-07 03:40:00,68.8,67.3,30.10,WNW,290,2.0,5.0,95,0.00,,,0.09,Wunderground v.1.15,2013-07-07 07:40:00,
2013-07-07 03:46:00,68.8,67.3,30.10,WSW,247,2.0,5.0,95,0.00,,,0.09,Wunderground v.1.15,2013-07-07 07:46:00,
2013-07-07 03:52:00,68.7,67.2,30.10,West,276,1.0,5.0,95,0.00,,,0.09,Wunderground v.1.15,2013-07-07 07:52:00,
2013-07-07 03:58:00,68.7,67.5,30.10,SW,222,1.0,5.0,96,0.00,,,0.10,Wunderground v.1.15,2013-07-07 07:58:00,
2013-07-07 04:04:00,68.7,67.2,30.10,WSW,257,1.0,5.0,95,0.00,,,0.10,Wunderground v.1.15,2013-07-07 08:04:00,
2013-07-07 04:10:00,68.8,67.6,30.10,NW,314,1.0,5.0,96,0.00,,,0.10,Wunderground v.1.15,2013-07-07 08:10:00,
2013-07-07 04:16:00,68.8,67.6,30.10,WNW,302,1.0,5.0,96,0.00,,,0.10,Wunderground v.1.15,2013-07-07 08:16:00,
2013-07-07 04:22:00,68.8,67.3,30.10,NNW,333,1.0,5.0,95,0.00,,,0.10,Wunderground v.1.15,2013-07-07 08:22:00,
2013-07-07 04:28:00,68.8,67.6,30.09,WNW,294,3.0,5.0,96,0.00,,,0.10,Wunderground v.1.15,2013-07-07 08:28:00,
2013-07-07 04:34:00,68.8,67.3,30.10,SW,222,3.0,5.0,95,0.00,,,0.10,Wunderground v.1.15,2013-07-07 08:34:00,
2013-07-07 04:40:00,68.8,67.3,30.09,NW,316,3.0,5.0,95,0.00,,,0.10,Wunderground v.1.15,2013-07-07 08:40:00,
2013-07-07 04:46:00,68.8,67.3,30.10,SSW,210,3.0,5.0,95,0.00,,,0.10,Wunderground v.1.15,2013-07-07 08:46:00,
2013-07-07 04:52:00,68.8,67.3,30.09,NW,321,3.0,5.0,95,0.00,,,0.10,Wunderground v.1.15,2013-07-07 08:52:00,
2013-07-07 04:58:00,68.9,67.4,30.10,NNW,332,3.0,6.0,95,0.00,,,0.10,Wunderground v.1.15,2013-07-07 08:58:00,
2013-07-07 05:04:00,68.8,67.3,30.09,SW,218,1.0,5.0,95,0.00,,,0.10,Wunderground v.1.15,2013-07-07 09:04:00,
2013-07-07 05:10:00,68.8,67.3,30.09,NW,310,1.0,5.0,95,0.00,,,0.10,Wunderground v.1.15,2013-07-07 09:10:00,
2013-07-07 05:16:00,68.8,67.3,30.09,WSW,253,1.0,5.0,95,0.00,,,0.10,Wunderground v.1.15,2013-07-07 09:16:00,
2013-07-07 05:22:00,68.8,67.3,30.09,NW,325,1.0,5.0,95,0.00,,,0.10,Wunderground v.1.15,2013-07-07 09:22:00,
2013-07-07 05:28:00,68.8,67.3,30.09,West,267,2.0,5.0,95,0.00,,,0.10,Wunderground v.1.15,2013-07-07 09:28:00,
2013-07-07 05:34:00,68.6,67.1,30.09,NW,319,1.0,5.0,95,0.00,,,0.10,Wunderground v.1.15,2013-07-07 09:34:00,
2013-07-07 05:40:00,68.6,67.1,30.09,WSW,257,1.0,1.0,95,0.00,,,0.10,Wunderground v.1.15,2013-07-07 09:40:00,
2013-07-07 05:46:00,68.5,67.0,30.09,NW,308,1.0,5.0,95,0.00,,,0.10,Wunderground v.1.15,2013-07-07 09:46:00,
2013-07-07 05:52:00,68.5,67.0,30.10,West,267,1.0,2.0,95,0.00,,,0.10,Wunderground v.1.15,2013-07-07 09:52:00,
2013-07-07 05:58:00,68.5,67.0,30.10,NW,326,1.0,5.0,95,0.00,,,0.10,Wunderground v.1.15,2013-07-07 09:58:00,
2013-07-07 06:04:00,68.5,67.0,30.10,West,262,1.0,5.0,95,0.00,,,0.10,Wunderground v.1.15,2013-07-07 10:04:00,
2013-07-07 06:10:00,68.5,67.0,30.10,SW,236,0.0,5.0,95,0.00,,,0.10,Wunderground v.1.15,2013-07-07 10:10:00,
2013-07-07 06:16:00,68.4,66.9,30.10,West,274,0.0,5.0,95,0.00,,,0.11,Wunderground v.1.15,2013-07-07 10:16:00,
2013-07-07 06:22:00,68.5,67.0,30.11,WSW,242,0.0,5.0,95,0.00,,,0.11,Wunderground v.1.15,2013-07-07 10:22:00,
2013-07-07 06:28:00,68.5,67.0,30.10,WSW,255,0.0,5.0,95,0.00,,,0.11,Wunderground v.1.15,2013-07-07 10:28:00,
2013-07-07 06:34:00,68.4,66.9,30.10,SW,232,1.0,5.0,95,0.00,,,0.11,Wunderground v.1.15,2013-07-07 10:34:00,
2013-07-07 06:40:00,68.5,67.3,30.11,NW,321,1.0,5.0,96,0.00,,,0.11,Wunderground v.1.15,2013-07-07 10:40:00,
2013-07-07 06:46:00,68.5,67.0,30.10,West,270,1.0,5.0,95,0.00,,,0.11,Wunderground v.1.15,2013-07-07 10:46:00,
2013-07-07 06:52:00,68.6,67.1,30.10,WSW,244,2.0,5.0,95,0.00,,,0.11,Wunderground v.1.15,2013-07-07 10:52:00,
2013-07-07 06:58:00,68.5,67.0,30.11,WSW,257,1.0,5.0,95,0.00,,,0.11,Wunderground v.1.15,2013-07-07 10:58:00,
2013-07-07 07:04:00,68.6,67.1,30.11,SW,235,0.0,5.0,95,0.00,,,0.11,Wunderground v.1.15,2013-07-07 11:04:00,
2013-07-07 07:10:00,68.6,67.1,30.11,SW,236,0.0,5.0,95,0.00,,,0.11,Wunderground v.1.15,2013-07-07 11:10:00,
2013-07-07 07:16:00,68.6,67.4,30.11,SSW,203,0.0,5.0,96,0.00,,,0.12,Wunderground v.1.15,2013-07-07 11:16:00,
2013-07-07 07:22:00,68.6,67.1,30.11,SSW,204,0.0,5.0,95,0.00,,,0.12,Wunderground v.1.15,2013-07-07 11:22:00,
2013-07-07 07:28:00,68.7,67.2,30.11,SSW,203,0.0,5.0,95,0.00,,,0.12,Wunderground v.1.15,2013-07-07 11:28:00,
2013-07-07 07:34:00,68.9,67.7,30.11,SSW,208,0.0,5.0,96,0.00,,,0.12,Wunderground v.1.15,2013-07-07 11:34:00,
2013-07-07 07:40:00,68.9,67.4,30.12,SSW,208,0.0,5.0,95,0.00,,,0.12,Wunderground v.1.15,2013-07-07 11:40:00,
2013-07-07 07:46:00,69.0,67.5,30.12,SSW,208,0.0,5.0,95,0.00,,,0.12,Wunderground v.1.15,2013-07-07 11:46:00,
2013-07-07 07:52:00,69.1,67.9,30.12,SSW,208,0.0,5.0,96,0.00,,,0.12,Wunderground v.1.15,2013-07-07 11:52:00,
2013-07-07 07:58:00,69.3,68.1,30.13,SSW,208,0.0,5.0,96,0.00,,,0.12,Wunderground v.1.15,2013-07-07 11:58:00,
2013-07-07 08:04:00,69.4,68.2,30.13,SSW,208,0.0,5.0,96,0.00,,,0.12,Wunderground v.1.15,2013-07-07 12:04:00,
2013-07-07 08:10:00,69.6,68.1,30.13,SSW,208,0.0,5.0,95,0.00,,,0.12,Wunderground v.1.15,2013-07-07 12:10:00,
2013-07-07 08:16:00,69.7,68.2,30.13,SSW,208,0.0,5.0,95,0.00,,,0.12,Wunderground v.1.15,2013-07-07 12:16:00,
2013-07-07 08:22:00,69.9,68.4,30.13,WSW,249,0.0,5.0,95,0.00,,,0.12,Wunderground v.1.15,2013-07-07 12:22:00,
2013-07-07 08:28:00,69.9,68.4,30.13,WSW,249,0.0,5.0,95,0.00,,,0.12,Wunderground v.1.15,2013-07-07 12:28:00,
2013-07-07 08:34:00,70.0,68.5,30.13,WSW,249,0.0,5.0,95,0.00,,,0.13,Wunderground v.1.15,2013-07-07 12:34:00,
2013-07-07 08:40:00,70.0,68.5,30.13,West,267,0.0,5.0,95,0.18,,,0.15,Wunderground v.1.15,2013-07-07 12:40:00,
2013-07-07 08:46:00,70.0,68.5,30.13,WSW,245,0.0,5.0,95,0.06,,,0.15,Wunderground v.1.15,2013-07-07 12:46:00,
2013-07-07 08:52:00,70.0,68.8,30.13,SW,229,0.0,5.0,96,0.04,,,0.15,Wunderground v.1.15,2013-07-07 12:52:00,
2013-07-07 08:58:00,69.9,68.4,30.14,SW,223,1.0,5.0,95,0.00,,,0.16,Wunderground v.1.15,2013-07-07 12:58:00,
2013-07-07 09:04:00,69.8,68.6,30.14,SSW,198,2.0,5.0,96,0.19,,,0.19,Wunderground v.1.15,2013-07-07 13:04:00,
2013-07-07 09:10:00,69.8,68.6,30.15,SE,146,1.0,5.0,96,0.58,,,0.28,Wunderground v.1.15,2013-07-07 13:10:00,
2013-07-07 09:16:00,69.8,68.6,30.15,SSE,153,2.0,5.0,96,0.17,,,0.30,Wunderground v.1.15,2013-07-07 13:16:00,
2013-07-07 09:22:00,69.7,68.5,30.15,South,191,3.0,5.0,96,0.17,,,0.31,Wunderground v.1.15,2013-07-07 13:22:00,
2013-07-07 09:28:00,69.7,68.2,30.16,SSE,162,4.0,6.0,95,0.42,,,0.36,Wunderground v.1.15,2013-07-07 13:28:00,
2013-07-07 09:34:00,69.5,68.0,30.16,South,172,4.0,6.0,95,1.13,,,0.39,Wunderground v.1.15,2013-07-07 13:34:00,
2013-07-07 09:40:00,69.4,67.9,30.16,SSE,162,5.0,7.0,95,0.17,,,0.42,Wunderground v.1.15,2013-07-07 13:40:00,
2013-07-07 09:46:00,69.2,67.7,30.16,South,171,4.0,7.0,95,0.29,,,0.45,Wunderground v.1.15,2013-07-07 13:46:00,
2013-07-07 09:52:00,69.1,67.6,30.16,South,190,4.0,5.0,95,0.10,,,0.46,Wunderground v.1.15,2013-07-07 13:52:00,
2013-07-07 09:58:00,69.0,67.5,30.16,SSE,155,4.0,7.0,95,0.84,,,0.48,Wunderground v.1.15,2013-07-07 13:58:00,
2013-07-07 10:04:00,69.1,67.6,30.16,South,187,3.0,5.0,95,0.13,,,0.50,Wunderground v.1.15,2013-07-07 14:04:00,
2013-07-07 10:10:00,69.2,68.0,30.16,SSE,154,1.0,1.0,96,0.09,,,0.50,Wunderground v.1.15,2013-07-07 14:10:00,
2013-07-07 10:16:00,69.2,67.7,30.16,SSE,160,2.0,5.0,95,0.07,,,0.51,Wunderground v.1.15,2013-07-07 14:16:00,
2013-07-07 10:22:00,69.2,67.7,30.16,SE,136,2.0,5.0,95,0.64,,,0.53,Wunderground v.1.15,2013-07-07 14:22:00,
2013-07-07 10:28:00,69.2,68.0,30.16,South,170,3.0,7.0,96,0.20,,,0.55,Wunderground v.1.15,2013-07-07 14:28:00,
2013-07-07 10:34:00,69.3,68.1,30.16,South,185,2.0,5.0,96,0.10,,,0.56,Wunderground v.1.15,2013-07-07 14:34:00,
2013-07-07 10:40:00,69.5,68.3,30.16,SSE,155,1.0,5.0,96,0.05,,,0.56,Wunderground v.1.15,2013-07-07 14:40:00,
2013-07-07 10:46:00,69.6,68.4,30.16,South,181,1.0,5.0,96,0.18,,,0.57,Wunderground v.1.15,2013-07-07 14:46:00,
2013-07-07 10:52:00,69.6,68.4,30.16,South,190,2.0,5.0,96,0.10,,,0.58,Wunderground v.1.15,2013-07-07 14:52:00,
2013-07-07 10:58:00,69.8,68.6,30.16,SSW,194,3.0,5.0,96,0.05,,,0.58,Wunderground v.1.15,2013-07-07 14:58:00,
2013-07-07 11:04:00,69.7,68.2,30.16,South,169,3.0,5.0,95,0.94,,,0.62,Wunderground v.1.15,2013-07-07 15:04:00,
2013-07-07 11:10:00,69.5,68.0,30.17,SW,218,3.0,5.0,95,1.37,,,0.67,Wunderground v.1.15,2013-07-07 15:10:00,
2013-07-07 11:16:00,69.3,67.8,30.16,SSE,159,2.0,5.0,95,0.47,,,0.75,Wunderground v.1.15,2013-07-07 15:16:00,
2013-07-07 11:22:00,69.2,67.4,30.17,SSE,162,1.0,5.0,94,0.09,,,0.76,Wunderground v.1.15,2013-07-07 15:22:00,
2013-07-07 11:28:00,69.4,67.6,30.17,South,187,2.0,5.0,94,0.13,,,0.77,Wunderground v.1.15,2013-07-07 15:28:00,
2013-07-07 11:34:00,69.5,68.0,30.17,SSW,201,1.0,5.0,95,0.18,,,0.79,Wunderground v.1.15,2013-07-07 15:34:00,
2013-07-07 11:40:00,69.2,67.1,30.17,South,172,1.0,5.0,93,0.10,,,0.80,Wunderground v.1.15,2013-07-07 15:40:00,
2013-07-07 11:46:00,69.0,67.2,30.17,South,190,2.0,5.0,94,0.06,,,0.80,Wunderground v.1.15,2013-07-07 15:46:00,
2013-07-07 11:52:00,68.8,67.0,30.17,ESE,122,1.0,2.0,94,0.38,,,0.87,Wunderground v.1.15,2013-07-07 15:52:00,
2013-07-07 11:58:00,68.5,66.4,30.16,SE,128,1.0,5.0,93,0.32,,,0.89,Wunderground v.1.15,2013-07-07 15:58:00,
2013-07-07 12:04:00,68.5,66.4,30.17,SSW,199,0.0,5.0,93,0.13,,,0.90,Wunderground v.1.15,2013-07-07 16:04:00,
2013-07-07 12:10:00,68.4,66.6,30.17,South,184,0.0,5.0,94,0.06,,,0.90,Wunderground v.1.15,2013-07-07 16:10:00,
2013-07-07 12:16:00,68.4,66.6,30.18,South,183,0.0,5.0,94,0.05,,,0.91,Wunderground v.1.15,2013-07-07 16:16:00,
2013-07-07 12:22:00,68.4,66.9,30.18,SSE,152,2.0,6.0,95,0.05,,,0.91,Wunderground v.1.15,2013-07-07 16:22:00,
2013-07-07 12:28:00,68.2,66.4,30.18,SSE,159,3.0,6.0,94,0.04,,,0.92,Wunderground v.1.15,2013-07-07 16:28:00,
2013-07-07 12:34:00,68.1,66.3,30.18,SSW,204,2.0,5.0,94,0.15,,,0.94,Wunderground v.1.15,2013-07-07 16:34:00,
2013-07-07 12:40:00,67.9,66.1,30.18,SSE,167,1.0,5.0,94,0.14,,,0.95,Wunderground v.1.15,2013-07-07 16:40:00,
2013-07-07 12:46:00,67.8,66.0,30.18,SE,142,1.0,5.0,94,0.12,,,0.96,Wunderground v.1.15,2013-07-07 16:46:00,
2013-07-07 12:52:00,67.8,66.0,30.18,SE,135,1.0,5.0,94,0.05,,,0.96,Wunderground v.1.15,2013-07-07 16:52:00,
2013-07-07 12:58:00,67.8,66.3,30.17,SW,219,1.0,5.0,95,0.05,,,0.97,Wunderground v.1.15,2013-07-07 16:58:00,
2013-07-07 13:04:00,67.7,66.2,30.17,SSW,198,2.0,5.0,95,0.07,,,0.98,Wunderground v.1.15,2013-07-07 17:04:00,
2013-07-07 13:10:00,67.6,66.1,30.17,SSW,198,1.0,1.0,95,0.11,,,0.99,Wunderground v.1.15,2013-07-07 17:10:00,
2013-07-07 13:16:00,67.6,65.8,30.16,SSW,198,0.0,5.0,94,0.07,,,0.99,Wunderground v.1.15,2013-07-07 17:16:00,
2013-07-07 13:22:00,67.7,66.2,30.16,SSW,198,0.0,5.0,95,0.04,,,0.99,Wunderground v.1.15,2013-07-07 17:22:00,
2013-07-07 13:28:00,67.9,66.4,30.16,SE,143,0.0,5.0,95,0.04,,,1.00,Wunderground v.1.15,2013-07-07 17:28:00,
2013-07-07 13:34:00,68.1,66.6,30.16,South,177,0.0,5.0,95,0.04,,,1.00,Wunderground v.1.15,2013-07-07 17:34:00,
2013-07-07 13:40:00,68.4,66.9,30.16,SSE,148,0.0,5.0,95,0.00,,,1.00,Wunderground v.1.15,2013-07-07 17:40:00,
2013-07-07 13:46:00,69.0,67.5,30.16,ESE,121,1.0,5.0,95,0.00,,,1.00,Wunderground v.1.15,2013-07-07 17:46:00,
2013-07-07 13:52:00,69.1,67.3,30.16,SE,136,2.0,5.0,94,0.00,,,1.00,Wunderground v.1.15,2013-07-07 17:52:00,
2013-07-07 13:58:00,69.2,67.4,30.16,South,184,2.0,5.0,94,0.00,,,1.00,Wunderground v.1.15,2013-07-07 17:58:00,
2013-07-07 14:04:00,69.3,67.2,30.17,SSE,156,1.0,5.0,93,0.00,,,1.00,Wunderground v.1.15,2013-07-07 18:04:00,
2013-07-07 14:10:00,69.4,67.6,30.17,SSE,167,1.0,5.0,94,0.00,,,1.00,Wunderground v.1.15,2013-07-07 18:10:00,
2013-07-07 14:16:00,69.5,67.4,30.16,SE,127,1.0,5.0,93,0.00,,,1.00,Wunderground v.1.15,2013-07-07 18:16:00,
2013-07-07 14:22:00,69.4,67.3,30.16,South,187,1.0,5.0,93,0.00,,,1.00,Wunderground v.1.15,2013-07-07 18:22:00,
2013-07-07 14:28:00,69.3,67.2,30.17,South,171,1.0,5.0,93,0.00,,,1.00,Wunderground v.1.15,2013-07-07 18:28:00,
2013-07-07 14:34:00,69.2,67.1,30.16,SSW,197,1.0,5.0,93,0.00,,,1.01,Wunderground v.1.15,2013-07-07 18:34:00,
2013-07-07 14:40:00,69.2,67.4,30.16,SSW,203,2.0,5.0,94,0.00,,,1.01,Wunderground v.1.15,2013-07-07 18:40:00,
2013-07-07 14:46:00,69.0,67.2,30.16,SSW,193,2.0,5.0,94,0.00,,,1.01,Wunderground v.1.15,2013-07-07 18:46:00,
2013-07-07 14:52:00,69.1,67.3,30.16,SSE,155,2.0,5.0,94,0.00,,,1.02,Wunderground v.1.15,2013-07-07 18:52:00,
2013-07-07 14:58:00,69.0,67.2,30.16,SE,135,2.0,5.0,94,0.00,,,1.02,Wunderground v.1.15,2013-07-07 18:58:00,
2013-07-07 15:04:00,69.1,67.3,30.16,SSE,160,3.0,5.0,94,0.00,,,1.02,Wunderground v.1.15,2013-07-07 19:04:00,
2013-07-07 15:10:00,69.4,67.6,30.16,South,190,2.0,2.0,94,0.00,,,1.02,Wunderground v.1.15,2013-07-07 19:10:00,
2013-07-07 15:16:00,69.6,67.5,30.15,SSE,167,1.0,5.0,93,0.00,,,1.02,Wunderground v.1.15,2013-07-07 19:16:00,
2013-07-07 15:22:00,69.9,67.5,30.15,South,176,1.0,5.0,92,0.00,,,1.02,Wunderground v.1.15,2013-07-07 19:22:00,
2013-07-07 15:28:00,70.3,67.5,30.15,SW,217,1.0,5.0,91,0.00,,,1.02,Wunderground v.1.15,2013-07-07 19:28:00,
2013-07-07 15:34:00,71.2,67.8,30.16,East,100,1.0,5.0,89,0.00,,,1.02,Wunderground v.1.15,2013-07-07 19:34:00,
2013-07-07 15:40:00,71.6,67.9,30.15,ENE,78,3.0,5.0,88,0.00,,,1.02,Wunderground v.1.15,2013-07-07 19:40:00,
2013-07-07 15:46:00,71.6,67.9,30.15,SSE,148,4.0,5.0,88,0.00,,,1.02,Wunderground v.1.15,2013-07-07 19:46:00,
2013-07-07 15:52:00,72.0,67.9,30.15,SE,143,3.0,5.0,87,0.00,,,1.02,Wunderground v.1.15,2013-07-07 19:52:00,
2013-07-07 15:58:00,72.1,68.0,30.15,East,82,2.0,5.0,87,0.00,,,1.02,Wunderground v.1.15,2013-07-07 19:58:00,
2013-07-07 16:04:00,72.1,68.7,30.15,East,96,1.0,5.0,89,0.00,,,1.02,Wunderground v.1.15,2013-07-07 20:04:00,
2013-07-07 16:10:00,71.9,68.2,30.15,SE,142,2.0,5.0,88,0.00,,,1.02,Wunderground v.1.15,2013-07-07 20:10:00,
2013-07-07 16:16:00,71.6,67.9,30.15,ENE,73,2.0,5.0,88,0.00,,,1.02,Wunderground v.1.15,2013-07-07 20:16:00,
2013-07-07 16:22:00,71.4,67.7,30.15,SE,136,2.0,5.0,88,0.00,,,1.02,Wunderground v.1.15,2013-07-07 20:22:00,
2013-07-07 16:28:00,71.4,67.7,30.14,ESE,118,3.0,5.0,88,0.00,,,1.02,Wunderground v.1.15,2013-07-07 20:28:00,
2013-07-07 16:34:00,71.4,68.3,30.14,ESE,107,2.0,5.0,90,0.00,,,1.02,Wunderground v.1.15,2013-07-07 20:34:00,
2013-07-07 16:40:00,71.2,67.8,30.14,SE,129,3.0,5.0,89,0.00,,,1.02,Wunderground v.1.15,2013-07-07 20:40:00,
2013-07-07 16:46:00,71.2,68.1,30.14,SSE,158,3.0,5.0,90,0.00,,,1.02,Wunderground v.1.15,2013-07-07 20:46:00,
2013-07-07 16:52:00,71.2,68.1,30.13,SE,136,2.0,5.0,90,0.00,,,1.02,Wunderground v.1.15,2013-07-07 20:52:00,
2013-07-07 16:58:00,71.4,68.0,30.14,SSW,197,1.0,5.0,89,0.00,,,1.02,Wunderground v.1.15,2013-07-07 20:58:00,
2013-07-07 17:04:00,71.2,68.1,30.14,SSE,150,3.0,5.0,90,0.00,,,1.02,Wunderground v.1.15,2013-07-07 21:04:00,
2013-07-07 17:10:00,71.2,68.1,30.13,South,187,2.0,2.0,90,0.00,,,1.02,Wunderground v.1.15,2013-07-07 21:10:00,
2013-07-07 17:16:00,71.2,68.1,30.13,SSW,193,2.0,5.0,90,0.00,,,1.02,Wunderground v.1.15,2013-07-07 21:16:00,
2013-07-07 17:22:00,71.4,68.3,30.13,SSE,163,3.0,5.0,90,0.00,,,1.02,Wunderground v.1.15,2013-07-07 21:22:00,
2013-07-07 17:28:00,71.5,68.7,30.13,SE,136,3.0,5.0,91,0.00,,,1.02,Wunderground v.1.15,2013-07-07 21:28:00,
2013-07-07 17:34:00,71.2,68.4,30.12,ESE,117,4.0,7.0,91,0.00,,,1.03,Wunderground v.1.15,2013-07-07 21:34:00,
2013-07-07 17:40:00,71.1,68.7,30.12,SE,128,3.0,3.0,92,0.00,,,1.03,Wunderground v.1.15,2013-07-07 21:40:00,
2013-07-07 17:46:00,71.2,68.8,30.12,South,191,2.0,5.0,92,0.00,,,1.03,Wunderground v.1.15,2013-07-07 21:46:00,
2013-07-07 17:52:00,71.1,68.7,30.12,South,189,2.0,5.0,92,0.00,,,1.03,Wunderground v.1.15,2013-07-07 21:52:00,
2013-07-07 17:58:00,71.2,68.4,30.12,SSW,208,2.0,5.0,91,0.00,,,1.03,Wunderground v.1.15,2013-07-07 21:58:00,
2013-07-07 18:04:00,71.4,68.6,30.11,SE,127,2.0,5.0,91,0.00,,,1.03,Wunderground v.1.15,2013-07-07 22:04:00,
2013-07-07 18:10:00,71.6,68.8,30.12,SE,145,2.0,5.0,91,0.00,,,1.03,Wunderground v.1.15,2013-07-07 22:10:00,
2013-07-07 18:16:00,71.8,68.7,30.11,SE,134,2.0,5.0,90,0.00,,,1.03,Wunderground v.1.15,2013-07-07 22:16:00,
2013-07-07 18:22:00,72.3,67.9,30.11,East,85,3.0,5.0,86,0.00,,,1.03,Wunderground v.1.15,2013-07-07 22:22:00,
2013-07-07 18:28:00,73.1,67.6,30.11,SE,135,3.0,5.0,83,0.00,,,1.03,Wunderground v.1.15,2013-07-07 22:28:00,
2013-07-07 18:34:00,73.4,69.0,30.12,East,99,3.0,5.0,86,0.00,,,1.03,Wunderground v.1.15,2013-07-07 22:34:00,
2013-07-07 18:40:00,72.9,67.8,30.12,South,187,3.0,3.0,84,0.00,,,1.03,Wunderground v.1.15,2013-07-07 22:40:00,
2013-07-07 18:46:00,72.7,68.3,30.12,SE,145,1.0,5.0,86,0.00,,,1.03,Wunderground v.1.15,2013-07-07 22:46:00,
2013-07-07 18:52:00,72.7,68.6,30.12,SSE,160,1.0,5.0,87,0.00,,,1.03,Wunderground v.1.15,2013-07-07 22:52:00,
2013-07-07 18:58:00,72.5,67.4,30.12,South,176,1.0,5.0,84,0.00,,,1.03,Wunderground v.1.15,2013-07-07 22:58:00,
2013-07-07 19:06:00,72.4,67.3,30.12,South,188,1.0,5.0,84,0.00,,,1.03,Wunderground v.1.15,2013-07-07 23:06:00,
2013-07-07 19:12:00,72.4,67.3,30.12,South,186,0.0,5.0,84,0.00,,,1.03,Wunderground v.1.15,2013-07-07 23:12:00,
2013-07-07 19:18:00,73.3,68.2,30.11,SSW,198,0.0,5.0,84,0.00,,,1.03,Wunderground v.1.15,2013-07-07 23:18:00,
2013-07-07 19:24:00,74.0,68.2,30.12,SSW,195,0.0,5.0,82,0.00,,,1.03,Wunderground v.1.15,2013-07-07 23:24:00,
2013-07-07 19:30:00,73.8,67.6,30.12,SSW,200,0.0,5.0,81,0.00,,,1.03,Wunderground v.1.15,2013-07-07 23:30:00,
2013-07-07 19:36:00,73.1,66.9,30.12,SSE,163,0.0,5.0,81,0.00,,,1.03,Wunderground v.1.15,2013-07-07 23:36:00,
2013-07-07 19:42:00,72.8,67.7,30.13,South,191,1.0,5.0,84,0.00,,,1.03,Wunderground v.1.15,2013-07-07 23:42:00,
2013-07-07 19:48:00,72.9,68.1,30.13,South,182,2.0,5.0,85,0.00,,,1.03,Wunderground v.1.15,2013-07-07 23:48:00,
2013-07-07 19:54:00,73.2,68.1,30.13,South,191,1.0,5.0,84,0.00,,,1.03,Wunderground v.1.15,2013-07-07 23:54:00,
2013-07-07 20:00:00,72.9,67.8,30.13,South,188,1.0,5.0,84,0.00,,,1.03,Wunderground v.1.15,2013-07-08 00:00:00,
2013-07-07 20:06:00,72.5,67.7,30.13,South,187,1.0,5.0,85,0.00,,,1.03,Wunderground v.1.15,2013-07-08 00:06:00,
2013-07-07 20:12:00,72.5,67.7,30.13,South,176,1.0,5.0,85,0.00,,,1.03,Wunderground v.1.15,2013-07-08 00:12:00,
2013-07-07 20:18:00,71.9,67.8,30.13,South,191,1.0,5.0,87,0.00,,,1.03,Wunderground v.1.15,2013-07-08 00:18:00,
2013-07-07 20:24:00,71.3,67.6,30.13,SSW,208,1.0,5.0,88,0.00,,,1.03,Wunderground v.1.15,2013-07-08 00:24:00,
2013-07-07 20:30:00,71.4,67.7,30.13,South,191,0.0,5.0,88,0.00,,,1.03,Wunderground v.1.15,2013-07-08 00:30:00,
2013-07-07 20:36:00,71.5,67.8,30.13,SSW,194,0.0,5.0,88,0.00,,,1.03,Wunderground v.1.15,2013-07-08 00:36:00,
2013-07-07 20:42:00,71.1,67.7,30.13,South,190,0.0,5.0,89,0.00,,,1.03,Wunderground v.1.15,2013-07-08 00:42:00,
2013-07-07 20:48:00,70.8,67.7,30.13,SSW,204,0.0,5.0,90,0.00,,,1.03,Wunderground v.1.15,2013-07-08 00:48:00,
2013-07-07 20:54:00,70.4,67.6,30.14,SSW,211,0.0,5.0,91,0.00,,,1.03,Wunderground v.1.15,2013-07-08 00:54:00,
2013-07-07 21:00:00,69.9,67.5,30.14,SW,215,0.0,5.0,92,0.00,,,1.03,Wunderground v.1.15,2013-07-08 01:00:00,
2013-07-07 21:06:00,69.7,67.3,30.14,SSW,211,1.0,5.0,92,0.00,,,1.03,Wunderground v.1.15,2013-07-08 01:06:00,
2013-07-07 21:12:00,69.5,67.4,30.14,SW,214,2.0,5.0,93,0.00,,,1.03,Wunderground v.1.15,2013-07-08 01:12:00,
2013-07-07 21:18:00,69.3,67.2,30.14,SSW,211,1.0,5.0,93,0.00,,,1.03,Wunderground v.1.15,2013-07-08 01:18:00,
2013-07-07 21:24:00,69.2,67.1,30.14,SW,225,1.0,5.0,93,0.00,,,1.03,Wunderground v.1.15,2013-07-08 01:24:00,
2013-07-07 21:30:00,69.0,66.9,30.14,SW,214,1.0,1.0,93,0.00,,,1.03,Wunderground v.1.15,2013-07-08 01:30:00,
2013-07-07 21:36:00,68.8,66.7,30.14,SSW,196,0.0,5.0,93,0.00,,,1.03,Wunderground v.1.15,2013-07-08 01:36:00,
2013-07-07 21:42:00,68.8,67.0,30.15,SSW,197,0.0,5.0,94,0.00,,,1.03,Wunderground v.1.15,2013-07-08 01:42:00,
2013-07-07 21:48:00,68.7,66.9,30.15,SSW,197,0.0,5.0,94,0.00,,,1.03,Wunderground v.1.15,2013-07-08 01:48:00,
2013-07-07 21:54:00,68.4,66.6,30.15,SSW,197,0.0,5.0,94,0.00,,,1.03,Wunderground v.1.15,2013-07-08 01:54:00,
2013-07-07 22:00:00,68.1,66.3,30.16,SSW,197,0.0,5.0,94,0.00,,,1.03,Wunderground v.1.15,2013-07-08 02:00:00,
2013-07-07 22:06:00,68.0,66.5,30.16,SSW,197,0.0,5.0,95,0.00,,,1.03,Wunderground v.1.15,2013-07-08 02:06:00,
2013-07-07 22:12:00,67.9,66.4,30.16,SSW,197,0.0,5.0,95,0.00,,,1.03,Wunderground v.1.15,2013-07-08 02:12:00,
2013-07-07 22:18:00,67.7,66.2,30.17,SSW,197,0.0,5.0,95,0.00,,,1.03,Wunderground v.1.15,2013-07-08 02:18:00,
2013-07-07 22:24:00,67.4,65.9,30.17,SSW,208,0.0,5.0,95,0.00,,,1.03,Wunderground v.1.15,2013-07-08 02:24:00,
2013-07-07 22:30:00,67.3,66.1,30.17,SSW,208,0.0,5.0,96,0.00,,,1.03,Wunderground v.1.15,2013-07-08 02:30:00,
2013-07-07 23:10:00,66.6,65.4,30.17,South,179,0.0,5.0,96,0.00,,,1.03,Wunderground v.1.15,2013-07-08 03:10:00,
2013-07-07 23:16:00,66.4,65.2,30.18,South,179,0.0,5.0,96,0.00,,,1.03,Wunderground v.1.15,2013-07-08 03:16:00,
2013-07-07 23:22:00,66.4,65.2,30.18,SW,219,0.0,5.0,96,0.00,,,1.03,Wunderground v.1.15,2013-07-08 03:22:00,
2013-07-07 23:24:00,66.4,65.2,30.18,SW,221,0.0,5.0,96,0.00,,,1.03,Wunderground v.1.15,2013-07-08 03:24:00,
2013-07-07 23:30:00,66.2,65.0,30.18,SW,217,0.0,5.0,96,0.00,,,1.03,Wunderground v.1.15,2013-07-08 03:30:00,
2013-07-07 23:36:00,66.0,64.8,30.18,SW,218,0.0,5.0,96,0.00,,,1.03,Wunderground v.1.15,2013-07-08 03:36:00,
2013-07-07 23:42:00,66.0,64.8,30.18,SSW,205,0.0,5.0,96,0.00,,,1.03,Wunderground v.1.15,2013-07-08 03:42:00,
2013-07-07 23:48:00,66.2,65.3,30.18,SSW,205,0.0,5.0,97,0.00,,,1.03,Wunderground v.1.15,2013-07-08 03:48:00,
2013-07-07 23:54:00,66.3,65.4,30.18,SSW,195,0.0,5.0,97,0.00,,,1.03,Wunderground v.1.15,2013-07-08 03:54:00,